Flag for China Weather past 2 weeks in Taiyuan, Shanxi, China

Now
82 °F

Scattered clouds.


Feels Like: 81 °F
Forecast: 60 / 78 °F
Wind: 3 mph from Southwest

Location: Taiyuan Airport

Current Time: Aug 29, 2015 at 5:27:24 PM

Latest Report: Aug 29, 2015 at 4:30 PM


Visibility: N/A

Pressure: 29.80 "Hg (27.24 "Hg at 790m altitude)

Humidity: 30%

Dew point: 48 °F

Location of TaiyuanLocation

Historic Weather in Taiyuan — Graph

°F

Taiyuan temperature yesterday

Maximum temperature yesterday: 88 °F (at 3:30 PM)
Minimum temperature yesterday: 57 °F (at 6:00 AM)
Average temperature yesterday: 72 °F

Past Weeks' High & Low Weather Summary

 TemperatureHumidityPressure
High90 °F (Aug 16, 4:00 PM)94% (Aug 15, 1:30 AM)29.98 "Hg (Aug 15, 1:30 AM)
Low57 °F (Aug 21, 4:30 AM)17% (Aug 22, 3:00 PM)29.74 "Hg (Aug 14, 5:00 PM)
Average73 °F56%29.89 "Hg
* Reported Aug 14 4:00 PM — Aug 29 4:00 PM, Taiyuan, Weather by CustomWeather, © 2015

Note: Actual official high and low records may vary slightly from our data, if they occured in-between our weather recording intervals... More about our weather records

Advertising

Taiyuan weather history for previous 24 hours

 ConditionsComfort  
Time TempWeatherWind HumidityBarometerVisibility
4:00 PM
Sat, Aug 29
84 °FScattered clouds.1 mph29%29.80 "HgN/A
3:30 PM88 °FScattered clouds.1 mph25%29.80 "HgN/A
3:00 PM86 °FScattered clouds.3 mph29%29.80 "HgN/A
2:00 PM86 °FThunderstorms. Scattered clouds.3 mph29%29.83 "HgN/A
1:30 PM84 °FPassing clouds.6 mph31%29.83 "HgN/A
1:00 PM82 °FPassing clouds.3 mph35%29.86 "HgN/A
12:30 PM82 °FPassing clouds.6 mph37%29.86 "HgN/A
12:00 PM82 °FPassing clouds.3 mph37%29.89 "HgN/A
11:30 AM79 °FPassing clouds.1 mph42%29.89 "HgN/A
11:00 AM79 °FSunny.1 mph42%29.89 "Hg10 mi
10:30 AM77 °FSunny.1 mph44%29.92 "Hg10 mi
10:00 AM75 °FSunny.3 mph50%29.92 "Hg10 mi
9:30 AM73 °FSunny.1 mph50%29.92 "Hg10 mi
9:00 AM72 °FSunny.1 mph57%29.92 "Hg10 mi
8:30 AM70 °FSunny.1 mph60%29.89 "Hg10 mi
8:00 AM68 °FSunny.1 mph64%29.89 "Hg10 mi
7:30 AM64 °FSunny.No wind78%29.89 "Hg10 mi
7:00 AM63 °FSunny.1 mph77%29.89 "Hg10 mi
6:30 AM61 °FSunny.1 mph83%29.89 "Hg10 mi
6:00 AM61 °FSunny.3 mph83%29.89 "Hg10 mi
5:30 AM61 °FClear.1 mph83%29.89 "Hg10 mi
5:00 AM63 °FClear.1 mph77%29.89 "Hg10 mi
4:30 AM61 °FClear.1 mph83%29.86 "Hg10 mi
4:00 AM63 °FClear.1 mph83%29.86 "Hg10 mi
3:30 AM63 °FClear.1 mph77%29.86 "Hg10 mi
3:00 AM63 °FClear.1 mph77%29.86 "Hg10 mi
2:30 AM64 °FClear.1 mph73%29.89 "Hg10 mi
2:00 AM64 °FClear.1 mph73%29.89 "Hg10 mi
1:30 AM66 °FClear.1 mph68%29.89 "Hg10 mi
1:00 AM66 °FClear.1 mph68%29.89 "Hg10 mi
12:30 AM66 °FClear.1 mph68%29.89 "Hg10 mi
12:00 AM66 °FClear.3 mph64%29.89 "Hg10 mi
11:30 PM
Fri, Aug 28
70 °FClear.1 mph57%29.89 "Hg10 mi
11:00 PM70 °FPassing clouds.1 mph57%29.89 "HgN/A
10:30 PM70 °FPassing clouds.6 mph57%29.89 "HgN/A
10:00 PM70 °FPassing clouds.3 mph57%29.86 "HgN/A
9:30 PM73 °FPassing clouds.3 mph47%29.89 "HgN/A
9:00 PM73 °FPassing clouds.6 mph47%29.89 "HgN/A
8:30 PM75 °FPassing clouds.10 mph44%29.86 "HgN/A
8:00 PM75 °FThunderstorms. Passing clouds.8 mph44%29.83 "HgN/A
7:30 PM75 °FPassing clouds.10 mph44%29.83 "HgN/A
7:00 PM77 °FPassing clouds.8 mph42%29.83 "HgN/A
6:30 PM81 °FPassing clouds.13 mph37%29.80 "HgN/A
6:00 PM82 °FPassing clouds.8 mph28%29.80 "HgN/A
5:30 PM82 °FPassing clouds.8 mph30%29.80 "HgN/A
5:00 PM84 °FPassing clouds.8 mph29%29.77 "HgN/A
Weather by CustomWeather, © 2015

See weather overviewHow to use our weather pages